Tracking 20083 objects as of 9-Dec-2019
HD Live streaming from Space Station
objects crossing your sky now

FLOCK 2K 05

Track FLOCK 2K 05 now!
10-day predictions
FLOCK 2K 05 is classified as:


NORAD ID: 42864
Int'l Code: 2017-042AR
Perigee: 442.2 km
Apogee: 452.7 km
Inclination: 96.9 °
Period: 93.4 minutes
Semi major axis: 6818 km
RCS: Unknown
Launch date: July 14, 2017
Source: United States (US)
Launch site: TYURATAM MISSILE AND SPACE COMPLEX (TTMTR)
aabbcc
Your satellite tracking list
Your tracking list is empty




NASA's NSSDC Master Catalog

Two Line Element Set (TLE):
1 42864U 17042AR  19342.83826245 +.00005484 +00000-0 +13055-3 0  9993
2 42864 096.9154 216.9554 0007715 320.9048 039.1642 15.41967959134658
Source of the keplerian elements: AFSPC